Theta_e
348 349 350 350 353 354 351 348 346 346 346 347 347 344 344 344 343 344 349 352 355 357 358 357 354 352 351 349 345 341 337 336 336 336 336 335 334 333 332 331 331 332
348 348 349 352 356 354 352 349 347 347 346 346 346 343 343 343 344 349 355 357 357 356 355 353 351 350 348 345 339 336 335 335 335 335 334 333 331 331 330 330 331 332
346 346 349 354 356 355 353 351 349 349 348 346 344 344 343 345 350 355 357 357 355 353 352 350 350 348 343 338 334 334 335 335 335 334 332 330 330 330 331 332 332 332
347 347 351 355 355 353 353 351 350 349 350 350 348 346 346 350 355 357 355 354 352 352 351 350 348 343 336 334 334 335 335 335 334 331 330 330 330 331 331 332 332 332
351 350 352 353 351 351 352 351 349 350 351 350 347 346 349 354 356 355 354 353 352 351 350 349 345 338 333 333 334 335 334 333 332 330 330 330 330 331 332 332 332 332
356 354 353 350 348 349 351 350 349 350 349 346 346 350 353 356 355 354 354 353 351 350 349 346 340 334 333 334 335 335 334 332 331 330 330 331 330 331 332 332 332 331
357 357 355 353 350 347 347 346 346 348 347 345 351 355 356 355 354 354 353 351 350 349 347 342 336 333 334 335 335 334 332 331 331 330 330 331 331 331 332 331 331 331
357 356 356 356 354 350 346 345 346 348 347 348 353 355 355 354 353 353 352 350 349 347 343 337 333 334 335 335 334 333 332 331 331 331 331 331 331 331 331 331 331 332
357 355 355 355 355 352 351 349 348 348 348 350 352 354 354 353 352 352 350 349 348 342 337 334 334 335 335 334 332 331 331 332 332 332 331 331 331 331 331 332 332 333
357 355 353 353 354 353 352 350 349 350 351 352 353 353 353 352 351 350 349 348 344 336 333 334 335 335 333 332 331 332 332 332 332 331 331 331 331 331 331 331 333 334
356 355 352 351 353 352 350 350 351 353 354 353 354 354 352 351 350 349 348 345 339 333 333 335 335 334 332 332 332 333 333 333 332 331 331 331 332 331 331 331 333 335
354 354 353 351 350 350 351 352 353 355 355 355 355 354 351 350 349 347 346 343 336 332 333 335 335 333 332 332 333 333 334 333 331 330 330 331 331 331 331 332 332 334
352 352 352 350 350 351 352 353 355 356 356 355 354 352 350 348 346 345 345 340 333 331 333 335 334 333 333 333 333 334 334 333 332 331 330 331 331 331 331 332 332 333
352 352 350 349 351 353 353 354 356 356 355 354 352 350 349 347 345 345 343 335 330 331 334 335 334 333 333 333 334 334 334 333 332 331 331 331 331 331 331 333 335 335
354 354 352 351 353 354 355 356 356 356 355 353 350 349 347 345 345 344 340 332 328 331 335 335 334 334 334 333 334 335 334 333 332 331 331 331 331 332 332 333 334 334
356 356 354 355 356 356 356 357 356 355 354 351 349 348 346 345 344 341 335 329 327 330 334 335 334 334 334 333 334 335 334 333 332 331 331 331 331 332 332 332 332 332
359 359 357 358 358 357 357 356 355 354 352 350 348 347 346 345 342 337 331 327 326 329 334 335 334 334 335 334 335 335 333 333 332 332 332 332 332 332 331 331 331 331
360 361 360 359 358 357 357 356 354 352 351 349 348 347 345 343 339 334 329 326 326 328 332 335 335 335 335 335 335 334 333 333 333 332 331 329 330 331 330 330 330 329
360 361 361 360 360 358 357 355 353 352 351 350 348 346 344 340 336 333 329 326 327 329 333 334 335 335 335 334 333 333 333 331 327 324 324 323 324 327 328 329 328 329
361 361 360 360 360 359 357 356 353 352 351 349 347 344 341 338 336 332 328 327 329 331 333 334 334 335 334 333 334 333 329 325 321 321 323 325 325 327 328 328 330 332
362 362 361 361 360 359 358 355 353 352 350 348 346 343 340 338 336 332 327 327 330 332 333 334 334 334 335 335 334 330 326 325 325 324 325 327 328 328 329 330 332 334
363 362 362 362 361 359 358 355 354 352 350 347 344 341 339 338 335 331 327 328 331 332 333 333 333 334 335 333 329 326 328 331 329 324 325 328 329 329 330 331 333 333
364 363 362 362 361 359 357 356 354 352 349 347 343 340 338 336 334 330 327 328 331 332 333 333 333 335 331 325 325 328 331 333 330 325 326 329 329 330 331 332 332 333
364 363 362 362 361 360 358 356 354 351 348 346 343 341 338 335 333 330 327 328 330 331 332 333 334 335 330 325 329 332 332 333 330 325 326 329 329 330 331 331 332 332
365 364 363 362 361 360 359 356 353 350 348 345 343 341 337 335 333 330 327 329 331 331 332 333 334 335 332 331 332 332 332 333 330 324 325 329 329 329 330 331 331 331
367 365 364 362 361 360 358 355 352 349 347 344 342 339 336 334 332 329 327 329 331 331 332 333 334 334 334 333 333 333 333 333 328 323 325 328 328 327 328 329 329 329
Wind_Speed
22 23 20 15 13 13 14 16 17 16 17 18 18 18 18 15 13 10 6 9 11 9 7 4 0 3 7 9 10 11 11 12 12 12 13 13 14 15 16 16 15 15
24 25 21 16 14 14 14 15 16 15 16 18 19 19 16 12 8 8 12 13 11 8 6 3 2 5 8 9 10 11 11 12 13 13 13 14 14 15 17 17 17 16
24 25 21 17 16 16 15 16 16 15 15 16 17 19 16 8 10 15 14 12 10 8 5 3 4 6 8 9 10 10 12 13 13 13 14 15 15 16 17 17 16 16
23 24 22 20 19 18 17 18 18 17 16 15 17 18 12 12 17 16 13 10 8 6 4 4 5 7 7 8 8 10 12 13 13 13 14 15 15 15 16 15 15 16
23 24 23 22 22 21 19 19 19 19 17 15 15 12 13 19 17 14 12 10 7 5 4 4 6 7 7 7 8 11 12 12 12 14 16 16 14 14 15 14 14 15
23 23 22 21 22 23 23 22 21 20 14 9 7 14 20 19 16 14 12 9 7 5 4 5 5 6 6 7 9 11 11 11 12 14 16 15 14 14 14 14 13 15
24 24 22 20 19 21 23 23 23 19 12 6 14 21 20 17 16 14 11 8 6 5 4 4 5 6 7 8 9 10 11 11 13 14 14 14 13 14 14 14 14 15
25 25 24 22 20 19 20 21 20 15 10 11 18 20 18 16 15 12 9 7 5 4 4 4 5 7 8 8 8 10 12 13 12 11 12 12 12 13 14 14 14 16
24 24 24 24 23 22 21 22 18 12 11 16 19 19 17 14 12 10 8 5 4 5 5 5 7 8 8 8 10 12 14 12 10 10 10 10 11 13 14 14 14 16
25 25 25 25 25 24 23 21 16 14 16 18 19 18 16 14 12 9 6 5 6 7 7 7 8 8 9 11 14 14 13 11 10 10 10 9 10 12 13 13 14 15
27 26 25 26 25 23 20 18 17 18 20 20 20 18 16 14 11 8 6 7 8 8 8 8 8 9 11 14 15 13 11 10 10 10 9 8 8 10 12 13 14 14
28 27 27 26 22 19 18 19 19 21 22 21 19 18 15 12 10 9 9 9 9 8 8 9 9 10 13 13 13 11 10 10 10 9 9 8 6 7 10 11 11 11
26 26 28 25 19 19 20 19 20 21 22 21 18 16 14 12 11 11 10 9 9 9 10 10 11 13 13 12 11 10 10 9 9 9 9 8 7 6 7 7 8 8
21 24 27 25 21 20 20 20 21 22 21 20 17 15 13 13 13 12 10 10 10 11 12 12 13 14 13 12 10 9 9 8 8 8 8 8 7 5 5 6 6 7
18 21 24 26 25 24 22 22 23 23 21 19 17 15 14 14 12 11 10 11 12 13 14 14 14 14 13 11 10 9 9 8 7 7 7 7 6 4 5 5 5 5
18 19 24 28 28 26 25 25 25 23 22 20 18 17 16 14 13 11 11 11 12 15 16 16 15 14 13 11 10 10 9 8 7 7 7 6 5 4 4 3 2 2
22 24 27 28 27 27 26 26 25 24 23 21 20 18 16 15 14 12 12 11 12 15 17 17 16 14 12 11 11 10 8 8 8 7 6 5 4 3 3 2 1 3
25 26 27 27 27 27 27 26 26 25 24 22 20 19 17 16 15 13 12 11 12 16 18 18 16 14 12 11 11 10 9 8 7 5 4 3 3 2 2 1 2 3
27 27 27 27 27 27 27 26 26 25 24 23 21 20 19 17 16 14 13 13 15 17 19 19 17 14 13 13 12 10 9 8 7 6 5 4 3 3 3 2 4 7
29 29 28 28 28 28 27 27 26 25 24 23 22 21 20 19 17 15 14 15 17 19 21 20 17 14 14 13 12 10 10 10 10 10 9 7 6 5 6 7 9 10
31 31 30 30 29 29 28 28 27 26 25 24 23 22 21 20 19 17 16 17 19 20 21 20 17 14 13 12 12 12 12 12 11 12 11 10 9 9 10 11 11 12
32 32 32 31 31 30 30 29 28 27 26 26 24 23 22 21 20 18 18 19 20 21 22 20 17 15 13 12 13 13 12 11 11 12 12 13 13 13 12 11 11 12
33 33 33 33 33 32 31 31 30 29 28 27 26 26 25 24 21 20 19 20 22 22 23 22 19 16 15 15 15 14 12 11 10 11 13 14 14 13 13 12 11 11
34 34 34 34 34 34 33 32 31 31 30 29 28 28 27 25 23 21 20 20 22 23 23 22 20 18 17 16 15 14 12 11 9 10 13 14 14 13 13 12 12 11
35 35 35 35 35 35 34 33 32 31 30 29 29 28 28 26 23 22 21 22 22 22 22 22 20 19 18 16 15 14 13 12 10 11 14 14 14 13 13 13 13 13
35 36 36 36 36 35 33 32 31 31 30 30 29 28 28 27 24 23 23 23 23 22 22 22 21 20 19 17 16 14 14 14 12 12 15 16 15 15 15 15 15 15
Wind_Direction
215 213 215 222 238 246 236 225 225 232 235 236 239 241 241 247 263 272 237 185 180 178 174 177 206 360 9 12 9 13 22 31 39 40 36 35 34 34 38 39 39 41
213 212 216 224 236 236 223 222 234 243 244 246 248 249 257 267 253 204 167 158 160 160 159 155 54 19 12 12 12 18 29 40 47 41 32 35 40 44 47 46 45 46
210 211 215 223 232 230 221 227 238 246 252 253 250 256 265 248 182 167 160 159 157 149 139 101 49 24 16 19 22 32 45 51 48 37 37 49 52 52 50 47 47 48
207 211 215 222 229 228 225 229 237 245 252 257 263 267 251 186 166 162 158 157 153 143 123 78 43 29 27 27 33 49 56 53 45 43 54 60 57 53 48 44 46 49
205 209 215 222 227 229 228 229 235 242 253 268 273 253 192 169 166 164 161 158 152 141 113 70 43 37 37 38 49 59 56 52 53 58 64 63 59 54 45 41 47 49
206 208 212 220 225 228 230 232 234 241 259 276 220 177 168 168 170 167 163 156 144 126 90 60 47 46 48 52 61 59 54 61 70 69 68 67 62 54 44 44 51 51
207 208 211 217 223 228 232 234 238 246 263 235 173 166 168 170 166 162 159 151 134 106 74 57 56 63 65 63 62 61 68 82 84 76 72 70 62 52 48 51 55 53
211 210 212 218 224 228 231 235 240 246 241 199 176 170 171 170 164 160 158 151 130 102 92 82 79 81 74 64 64 77 90 96 91 81 76 73 62 52 51 56 56 52
214 213 213 219 225 229 233 238 240 228 204 190 178 171 169 168 166 164 160 152 135 123 116 105 95 86 75 74 87 98 102 100 94 88 84 77 64 54 55 58 55 50
216 214 214 218 224 231 236 235 224 199 189 184 175 169 165 162 161 160 155 145 135 129 122 112 101 92 89 94 101 105 105 101 98 95 91 85 71 59 59 59 54 49
218 217 215 217 225 230 225 210 193 181 178 176 170 165 162 159 158 155 151 144 134 130 128 120 107 102 105 105 105 107 106 105 106 101 95 95 82 63 60 62 59 53
220 220 217 219 221 213 195 182 177 174 172 171 170 168 165 162 160 155 150 141 133 135 135 126 116 110 110 110 110 110 110 111 111 104 101 104 94 69 60 59 57 53
220 221 220 220 210 190 180 175 173 173 172 172 175 175 172 169 163 155 148 140 138 142 142 134 125 118 115 116 116 115 117 120 119 112 108 107 103 86 62 46 44 52
218 222 220 215 198 181 179 175 172 174 174 174 175 176 175 171 166 159 150 144 144 146 147 143 134 128 126 125 124 125 127 128 129 127 120 113 112 102 74 62 66 73
216 217 209 198 186 177 174 172 172 174 173 173 174 174 172 170 168 164 155 149 148 150 151 150 145 140 138 134 132 133 134 131 132 135 131 126 123 109 86 83 88 82
199 194 186 179 174 171 171 171 172 173 172 173 175 175 174 172 168 164 157 152 151 155 157 157 154 150 148 144 139 137 136 130 129 134 139 143 139 115 95 93 88 42
176 171 170 169 167 168 169 171 172 173 174 175 176 176 175 173 169 162 155 151 153 159 163 162 157 155 156 154 146 142 141 136 136 139 140 146 152 133 109 102 33 357
172 167 167 167 167 169 171 173 175 175 176 178 178 178 175 170 167 161 154 150 154 160 164 161 157 154 156 157 153 149 148 146 145 148 152 159 173 173 155 108 30 39
176 172 170 170 171 174 175 177 179 179 180 181 179 178 174 169 166 161 155 154 156 158 159 158 155 152 151 154 153 151 149 142 129 117 114 124 145 159 148 106 86 89
178 177 175 174 176 179 180 182 183 183 183 182 180 177 173 169 167 163 158 159 161 158 155 153 151 151 155 157 155 151 145 130 109 94 89 95 108 120 115 107 102 98
180 179 178 178 181 183 184 185 186 185 182 181 180 179 176 172 170 167 161 162 164 161 156 153 151 151 157 160 156 150 140 121 99 86 85 92 101 107 108 107 104 99
182 181 181 182 183 184 185 186 186 185 183 181 180 179 178 175 171 168 164 163 165 164 159 156 154 154 157 158 153 147 136 119 102 90 90 99 105 107 107 106 106 105
185 184 183 184 185 186 187 188 189 186 183 182 180 179 177 176 171 167 165 166 167 167 165 161 157 157 157 152 148 145 139 131 117 100 99 108 111 111 110 109 109 110
189 189 188 187 188 189 191 191 189 186 184 184 184 181 177 175 171 166 167 170 170 169 168 164 160 162 162 157 152 149 147 147 137 114 111 116 117 115 114 113 114 116
191 192 192 191 191 193 194 192 188 184 183 184 184 181 175 173 171 168 168 173 173 171 171 168 165 167 170 170 166 159 158 160 152 130 124 126 123 120 117 116 116 116
192 193 195 196 195 195 193 190 186 183 182 181 180 177 173 171 172 171 170 172 174 174 174 174 172 172 176 179 178 173 171 170 158 138 132 133 129 124 121 119 117 115